CZ-6A DEB, 54619

Orbit data source: Space-Track

CZ-6A DEB, 54619 is space debris in SSO originally from a launch on Fri, 11 Nov 2022 UTC launched from the Taiyaun Space Center, China (TSC). Debris objects in space refer to the collection of defunct objects orbiting the Earth. Examples of debris include non-operational satellites, rocket bodies, and fragments generated from explosions, collisions, or faulty payload assembly.

Loading next visibility...
Identifier
54619, 2022-151NV
Orbit
SSO
Country
Flag of CNCN / PRC
Related business
Manufacturer
SAST
Mission
Spacecraft
Bus & Motor
Unknown
Mass
Unknown
Launch date (UTC)
2022-11-11 (4 years ago)
Launch vehicle
Unknown
Launch site
Taiyaun Space Center, China (TSC)
Object type
Payload
Rocket body
Debris
Shape & HBR
Unknown shape, 0.1 m
Radar Cross Section
Small (<0.1 m²)

Expand to show TLE details & history
Last TLE update: 10 hours ago

TLE from 10 hours ago
0 CZ-6A DEB
1 54619U 22151NV  26264.45078761  .00000763  00000-0  24937-3 0  9998
2 54619  98.7882 329.1594 0070789 106.1038 254.7957 14.40094797200974
Epoch: 2026-09-21T10:49Z
TLE epoch observation values (Epoch: 2026-09-21T10:49:08.049Z)
Latitude
-0.00008°
Longitude
166.54544°
Altitude
774.709 km
Speed
7.46 km/s
True Right ascension
21h 56m 38s
True Declination
0° 00' 00"
Sunlit
Object was in full shadow at epoch
Visualization orbit readout
Latitude
Unknown
Longitude
Unknown
Altitude
Unknown
Speed
Unknown
Apparent Right ascension
Unknown
Apparent Declination
Unknown
Sunlit
N/A
Visualization observer readout
Local Sidereal Time
14:07:47
Azimuth
Unknown
Elevation
Unknown
Doppler factor
Unknown
Orbital elements
Apogee altitude
805.818 km
Perigee altitude
704.824 km
Semi-major axis
7,133.458 km
Eccentricity
0.00708
Inclination
98.7882°
RAAN
329.1594°
Arg. of periapsis
106.1038°
True anomaly
254.01475°
Mean anomaly
254.7957°
Eccentric anomaly
254.40504°
Mean motion
3.60241 °/min
Orbital period
99.93 mins
BSTAR
0.00024937
Loading maneuver chart data...
Computing Atmospheric mass density...
Loading historical data...
Loading historical data...
Loading historical data...
Loading historical data...
Loading historical data...
Loading historical data...
Loading historical data...

Documentation

Showing up to 5 results
|